Location: Krakow
(50.0830°N, 19.9170°E)
Time: 18:31:31
(UTC+01:00)

SR - Pass Details

Date: 11 February 2023
Orbit: 582 x 867 km, 66.7° (Epoch: 20 March)

Event Time Altitude Azimuth Distance (km) Brightness Sun altitude
Rises 19:13:01 0° 326° (NNW) 2,885 ? -23.2°
Reaches altitude 10° 19:15:37 10° 339° (NNW) 1,948 ? -23.6°
Enters shadow 19:17:55 22° 7° (N) 1,312 ? -24.0°
Maximum altitude 19:19:18 26° 38° (NE) 1,168 - -24.2°
Drops below altitude 10° 19:22:54 10° 96° (E) 1,904 - -24.8°
Sets 19:25:24 0° 109° (ESE) 2,804 - -25.2°
